Time,TemperatureF,DewpointF,PressureIn,WindDirection,WindDirectionDegrees,WindSpeedMPH,WindSpeedGustMPH,Humidity,HourlyPrecipIn,Conditions,Clouds,dailyrainin,SolarRadiationWatts/m^2,SoftwareType,DateUTC
2013-09-14 00:00:00,61.5,53.5,30.01,NE,44,1.0,4.0,75,0.00,CLR,CLR,0.00,0.0,WeatherDisplay:10.37,2013-09-14 05:00:00,
2013-09-14 00:10:00,61.4,53.4,30.01,NE,53,1.0,5.0,75,0.00,CLR,CLR,0.00,0.0,WeatherDisplay:10.37,2013-09-14 05:10:00,
2013-09-14 00:20:00,61.1,53.5,30.01,NE,48,2.0,4.0,76,0.00,CLR,CLR,0.00,0.0,WeatherDisplay:10.37,2013-09-14 05:20:00,
2013-09-14 00:30:00,61.0,53.4,30.01,NE,39,1.0,5.0,76,0.00,CLR,CLR,0.00,0.0,WeatherDisplay:10.37,2013-09-14 05:30:00,
2013-09-14 00:40:00,60.8,53.2,30.01,NE,37,1.0,4.0,76,0.00,CLR,CLR,0.00,0.0,WeatherDisplay:10.37,2013-09-14 05:40:00,
2013-09-14 00:50:00,60.4,53.2,30.01,NE,49,1.0,3.0,77,0.00,CLR,CLR,0.00,0.0,WeatherDisplay:10.37,2013-09-14 05:50:00,
2013-09-14 01:00:00,60.2,53.3,30.01,NE,48,1.0,4.0,78,0.00,CLR,CLR,0.00,0.0,WeatherDisplay:10.37,2013-09-14 06:00:00,
2013-09-14 01:10:00,59.9,53.0,30.01,NE,45,0.0,4.0,78,0.00,CLR,CLR,0.00,0.0,WeatherDisplay:10.37,2013-09-14 06:10:00,
2013-09-14 01:20:00,59.4,52.9,30.01,NE,39,0.0,3.0,79,0.00,CLR,CLR,0.00,0.0,WeatherDisplay:10.37,2013-09-14 06:20:00,
2013-09-14 01:30:00,59.3,52.8,30.01,NE,40,1.0,4.0,79,0.00,CLR,CLR,0.00,0.0,WeatherDisplay:10.37,2013-09-14 06:30:00,
2013-09-14 01:40:00,59.2,53.0,30.02,NE,37,2.0,4.0,80,0.00,CLR,CLR,0.00,0.0,WeatherDisplay:10.37,2013-09-14 06:40:00,
2013-09-14 01:50:00,59.0,52.8,30.02,NNE,31,1.0,4.0,80,0.00,CLR,CLR,0.00,0.0,WeatherDisplay:10.37,2013-09-14 06:50:00,
2013-09-14 02:00:00,58.9,52.7,30.02,NE,41,3.0,6.0,80,0.00,CLR,CLR,0.00,0.0,WeatherDisplay:10.37,2013-09-14 07:00:00,
2013-09-14 02:10:00,58.8,53.0,30.02,NE,42,2.0,6.0,81,0.00,CLR,CLR,0.00,0.0,WeatherDisplay:10.37,2013-09-14 07:10:00,
2013-09-14 02:20:00,58.6,52.8,30.02,NNE,29,3.0,6.0,81,0.00,CLR,CLR,0.00,0.0,WeatherDisplay:10.37,2013-09-14 07:20:00,
2013-09-14 02:30:00,58.4,52.6,30.02,NE,36,2.0,7.0,81,0.00,CLR,CLR,0.00,0.0,WeatherDisplay:10.37,2013-09-14 07:30:00,
2013-09-14 02:40:00,58.2,52.4,30.02,NE,36,3.0,5.0,81,0.00,CLR,CLR,0.00,0.0,WeatherDisplay:10.37,2013-09-14 07:40:00,
2013-09-14 02:50:00,58.0,52.5,30.02,NNE,28,2.0,5.0,82,0.00,CLR,CLR,0.00,0.0,WeatherDisplay:10.37,2013-09-14 07:50:00,
2013-09-14 03:00:00,57.8,52.3,30.01,NE,34,2.0,6.0,82,0.00,CLR,CLR,0.00,0.0,WeatherDisplay:10.37,2013-09-14 08:00:00,
2013-09-14 03:10:00,57.6,52.1,30.01,NE,35,1.0,6.0,82,0.00,CLR,CLR,0.00,0.0,WeatherDisplay:10.37,2013-09-14 08:10:00,
2013-09-14 03:20:00,57.4,52.3,30.01,NE,40,1.0,4.0,83,0.00,CLR,CLR,0.00,0.0,WeatherDisplay:10.37,2013-09-14 08:20:00,
2013-09-14 03:30:00,57.2,52.1,30.02,NE,40,2.0,5.0,83,0.00,CLR,CLR,0.00,0.0,WeatherDisplay:10.37,2013-09-14 08:30:00,
2013-09-14 03:40:00,57.0,51.9,30.02,NE,35,1.0,4.0,83,0.00,CLR,CLR,0.00,0.0,WeatherDisplay:10.37,2013-09-14 08:40:00,
2013-09-14 03:50:00,56.7,51.6,30.02,NE,36,2.0,7.0,83,0.00,CLR,CLR,0.00,0.0,WeatherDisplay:10.37,2013-09-14 08:50:00,
2013-09-14 04:00:00,56.7,51.6,30.02,NE,45,2.0,7.0,83,0.00,CLR,CLR,0.00,0.0,WeatherDisplay:10.37,2013-09-14 09:00:00,
2013-09-14 04:10:00,56.5,51.7,30.02,NE,35,2.0,5.0,84,0.00,CLR,CLR,0.00,0.0,WeatherDisplay:10.37,2013-09-14 09:10:00,
2013-09-14 04:20:00,56.3,51.5,30.02,NE,44,2.0,6.0,84,0.00,CLR,CLR,0.00,0.0,WeatherDisplay:10.37,2013-09-14 09:20:00,
2013-09-14 04:30:00,55.9,51.5,30.02,NE,42,1.0,4.0,85,0.00,CLR,CLR,0.00,0.0,WeatherDisplay:10.37,2013-09-14 09:30:00,
2013-09-14 04:40:00,55.6,51.2,30.01,NE,40,2.0,3.0,85,0.00,CLR,CLR,0.00,0.0,WeatherDisplay:10.37,2013-09-14 09:40:00,
2013-09-14 04:50:00,55.4,51.3,30.02,NE,42,1.0,4.0,86,0.00,CLR,CLR,0.00,0.0,WeatherDisplay:10.37,2013-09-14 09:50:00,
2013-09-14 05:00:00,55.2,51.1,30.02,NE,41,2.0,4.0,86,0.00,CLR,CLR,0.00,0.0,WeatherDisplay:10.37,2013-09-14 10:00:00,
2013-09-14 05:10:00,55.1,51.0,30.02,NE,43,2.0,5.0,86,0.00,CLR,CLR,0.00,0.0,WeatherDisplay:10.37,2013-09-14 10:10:00,
2013-09-14 05:20:00,54.9,50.8,30.02,NE,47,1.0,5.0,86,0.00,CLR,CLR,0.00,0.0,WeatherDisplay:10.37,2013-09-14 10:20:00,
2013-09-14 05:30:00,54.7,50.6,30.03,NE,42,1.0,5.0,86,0.00,CLR,CLR,0.00,0.0,WeatherDisplay:10.37,2013-09-14 10:30:00,
2013-09-14 05:40:00,54.6,50.5,30.03,NE,35,2.0,5.0,86,0.00,CLR,CLR,0.00,0.0,WeatherDisplay:10.37,2013-09-14 10:40:00,
2013-09-14 05:50:00,54.5,50.4,30.03,NNE,29,0.0,4.0,86,0.00,CLR,CLR,0.00,0.0,WeatherDisplay:10.37,2013-09-14 10:50:00,
2013-09-14 06:00:00,54.3,50.2,30.03,NNE,24,1.0,3.0,86,0.00,CLR,CLR,0.00,0.0,WeatherDisplay:10.37,2013-09-14 11:00:00,
2013-09-14 06:10:00,54.1,50.3,30.03,NE,40,1.0,2.0,87,0.00,CLR,CLR,0.00,0.0,WeatherDisplay:10.37,2013-09-14 11:10:00,
2013-09-14 06:20:00,53.8,50.0,30.04,NE,44,0.0,2.0,87,0.00,CLR,CLR,0.00,0.0,WeatherDisplay:10.37,2013-09-14 11:20:00,
2013-09-14 06:30:00,53.5,49.7,30.04,NE,44,0.0,1.0,87,0.00,CLR,CLR,0.00,0.0,WeatherDisplay:10.37,2013-09-14 11:30:00,
2013-09-14 06:40:00,53.6,49.8,30.05,NNE,16,2.0,4.0,87,0.00,CLR,CLR,0.00,0.0,WeatherDisplay:10.37,2013-09-14 11:40:00,
2013-09-14 06:50:00,53.6,49.8,30.05,NNE,31,1.0,3.0,87,0.00,CLR,CLR,0.00,0.0,WeatherDisplay:10.37,2013-09-14 11:50:00,
2013-09-14 07:00:00,53.9,50.2,30.06,NE,36,1.0,4.0,87,0.00,CLR,CLR,0.00,0.0,WeatherDisplay:10.37,2013-09-14 12:00:00,
2013-09-14 07:10:00,54.3,50.2,30.06,NE,38,2.0,5.0,86,0.00,CLR,CLR,0.00,0.0,WeatherDisplay:10.37,2013-09-14 12:10:00,
2013-09-14 07:20:00,54.2,50.4,30.06,NE,42,1.0,7.0,87,0.00,CLR,CLR,0.00,0.0,WeatherDisplay:10.37,2013-09-14 12:20:00,
2013-09-14 07:30:00,54.3,50.2,30.06,NE,38,2.0,5.0,86,0.00,CLR,CLR,0.00,0.0,WeatherDisplay:10.37,2013-09-14 12:30:00,
2013-09-14 07:40:00,55.5,51.0,30.07,NE,44,2.0,6.0,85,0.00,CLR,CLR,0.00,0.0,WeatherDisplay:10.37,2013-09-14 12:40:00,
2013-09-14 07:50:00,56.4,51.3,30.07,NE,43,2.0,6.0,83,0.00,CLR,CLR,0.00,0.0,WeatherDisplay:10.37,2013-09-14 12:50:00,
2013-09-14 08:00:00,57.4,51.6,30.07,NE,37,2.0,7.0,81,0.00,CLR,CLR,0.00,0.0,WeatherDisplay:10.37,2013-09-14 13:00:00,
2013-09-14 08:10:00,58.0,51.5,30.08,NE,37,3.0,6.0,79,0.00,CLR,CLR,0.00,0.0,WeatherDisplay:10.37,2013-09-14 13:10:00,
2013-09-14 08:20:00,59.0,51.4,30.08,NE,46,2.0,7.0,76,0.00,CLR,CLR,0.00,0.0,WeatherDisplay:10.37,2013-09-14 13:20:00,
2013-09-14 08:30:00,59.7,51.0,30.08,NE,49,5.0,6.0,73,0.00,CLR,CLR,0.00,0.0,WeatherDisplay:10.37,2013-09-14 13:30:00,
2013-09-14 08:40:00,61.0,51.9,30.08,ENE,69,1.0,5.0,72,0.00,CLR,CLR,0.00,0.0,WeatherDisplay:10.37,2013-09-14 13:40:00,
2013-09-14 08:50:00,61.6,51.7,30.08,ENE,65,2.0,6.0,70,0.00,CLR,CLR,0.00,0.0,WeatherDisplay:10.37,2013-09-14 13:50:00,
2013-09-14 09:00:00,62.8,51.3,30.09,ENE,63,2.0,6.0,66,0.00,CLR,CLR,0.00,0.0,WeatherDisplay:10.37,2013-09-14 14:00:00,
2013-09-14 09:10:00,62.7,51.2,30.09,ENE,60,3.0,9.0,66,0.00,CLR,CLR,0.00,0.0,WeatherDisplay:10.37,2013-09-14 14:10:00,
2013-09-14 09:20:00,63.6,51.2,30.09,East,89,3.0,10.0,64,0.00,CLR,CLR,0.00,0.0,WeatherDisplay:10.37,2013-09-14 14:20:00,
2013-09-14 09:30:00,64.2,50.9,30.09,ENE,72,2.0,10.0,62,0.00,CLR,CLR,0.00,0.0,WeatherDisplay:10.37,2013-09-14 14:30:00,
2013-09-14 09:40:00,65.1,50.4,30.10,East,86,3.0,7.0,59,0.00,CLR,CLR,0.00,0.0,WeatherDisplay:10.37,2013-09-14 14:40:00,
2013-09-14 09:50:00,66.7,51.5,30.10,East,92,3.0,7.0,58,0.00,CLR,CLR,0.00,0.0,WeatherDisplay:10.37,2013-09-14 14:50:00,
2013-09-14 10:00:00,65.8,51.1,30.10,NE,47,5.0,8.0,59,0.00,CLR,CLR,0.00,0.0,WeatherDisplay:10.37,2013-09-14 15:00:00,
2013-09-14 10:10:00,65.5,50.8,30.10,NE,39,7.0,10.0,59,0.00,CLR,CLR,0.00,0.0,WeatherDisplay:10.37,2013-09-14 15:10:00,
2013-09-14 10:20:00,67.2,51.4,30.10,ENE,69,3.0,12.0,57,0.00,CLR,CLR,0.00,0.0,WeatherDisplay:10.37,2013-09-14 15:20:00,
2013-09-14 10:30:00,66.5,49.3,30.10,NE,43,7.0,16.0,54,0.00,CLR,CLR,0.00,0.0,WeatherDisplay:10.37,2013-09-14 15:30:00,
2013-09-14 10:40:00,67.0,49.8,30.10,NE,54,5.0,14.0,54,0.00,CLR,CLR,0.00,0.0,WeatherDisplay:10.37,2013-09-14 15:40:00,
2013-09-14 10:50:00,67.8,49.5,30.10,NE,49,3.0,12.0,52,0.00,CLR,CLR,0.00,0.0,WeatherDisplay:10.37,2013-09-14 15:50:00,
2013-09-14 11:00:00,67.8,48.4,30.10,NE,46,7.0,12.0,50,0.00,CLR,CLR,0.00,0.0,WeatherDisplay:10.37,2013-09-14 16:00:00,
2013-09-14 11:10:00,68.6,50.3,30.10,NE,45,6.0,15.0,52,0.00,CLR,CLR,0.00,0.0,WeatherDisplay:10.37,2013-09-14 16:10:00,
2013-09-14 11:20:00,69.5,50.6,30.10,ENE,59,2.0,14.0,51,0.00,CLR,CLR,0.00,0.0,WeatherDisplay:10.37,2013-09-14 16:20:00,
2013-09-14 11:30:00,69.9,49.3,30.10,NE,45,8.0,12.0,48,0.00,CLR,CLR,0.00,0.0,WeatherDisplay:10.37,2013-09-14 16:30:00,
2013-09-14 11:40:00,69.1,49.1,30.10,NNE,25,9.0,13.0,49,0.00,CLR,CLR,0.00,0.0,WeatherDisplay:10.37,2013-09-14 16:40:00,
2013-09-14 11:50:00,68.6,49.2,30.09,NE,42,6.0,17.0,50,0.00,CLR,CLR,0.00,0.0,WeatherDisplay:10.37,2013-09-14 16:50:00,
2013-09-14 12:00:00,69.2,50.3,30.09,NE,43,6.0,14.0,51,0.00,CLR,CLR,0.00,0.0,WeatherDisplay:10.37,2013-09-14 17:00:00,
2013-09-14 12:10:00,70.7,50.0,30.08,NE,56,5.0,13.0,48,0.00,CLR,CLR,0.00,0.0,WeatherDisplay:10.37,2013-09-14 17:10:00,
2013-09-14 12:20:00,71.5,51.3,30.08,ENE,60,1.0,12.0,49,0.00,CLR,CLR,0.00,0.0,WeatherDisplay:10.37,2013-09-14 17:20:00,
2013-09-14 12:30:00,71.4,50.2,30.08,NE,39,7.0,14.0,47,0.00,CLR,CLR,0.00,0.0,WeatherDisplay:10.37,2013-09-14 17:30:00,
2013-09-14 12:40:00,70.9,48.5,30.08,NE,34,7.0,20.0,45,0.00,CLR,CLR,0.00,0.0,WeatherDisplay:10.37,2013-09-14 17:40:00,
2013-09-14 12:50:00,71.8,49.9,30.08,ENE,58,3.0,12.0,46,0.00,CLR,CLR,0.00,0.0,WeatherDisplay:10.37,2013-09-14 17:50:00,
2013-09-14 13:00:00,71.9,50.0,30.07,NE,52,6.0,13.0,46,0.00,CLR,CLR,0.00,0.0,WeatherDisplay:10.37,2013-09-14 18:00:00,
2013-09-14 13:10:00,73.8,50.5,30.07,East,84,3.0,10.0,44,0.00,CLR,CLR,0.00,0.0,WeatherDisplay:10.37,2013-09-14 18:10:00,
2013-09-14 13:20:00,73.1,49.8,30.07,NE,50,8.0,15.0,44,0.00,CLR,CLR,0.00,0.0,WeatherDisplay:10.37,2013-09-14 18:20:00,
2013-09-14 13:30:00,71.9,49.4,30.06,NNE,29,7.0,12.0,45,0.00,CLR,CLR,0.00,0.0,WeatherDisplay:10.37,2013-09-14 18:30:00,
2013-09-14 13:40:00,72.1,49.6,30.05,NNE,30,6.0,13.0,45,0.00,CLR,CLR,0.00,0.0,WeatherDisplay:10.37,2013-09-14 18:40:00,
2013-09-14 13:50:00,72.0,48.9,30.05,North,1,7.0,12.0,44,0.00,FEW,FEW,0.00,0.0,WeatherDisplay:10.37,2013-09-14 18:50:00,
2013-09-14 14:00:00,72.3,49.8,30.05,NNE,23,1.0,12.0,45,0.00,FEW,FEW,0.00,0.0,WeatherDisplay:10.37,2013-09-14 19:00:00,
2013-09-14 14:10:00,74.1,49.6,30.04,ENE,77,2.0,10.0,42,0.00,FEW,FEW,0.00,0.0,WeatherDisplay:10.37,2013-09-14 19:10:00,
2013-09-14 14:20:00,75.0,49.0,30.03,ENE,70,2.0,6.0,40,0.00,FEW,FEW,0.00,0.0,WeatherDisplay:10.37,2013-09-14 19:20:00,
2013-09-14 14:30:00,75.4,50.1,30.03,East,84,3.0,7.0,41,0.00,FEW,FEW,0.00,0.0,WeatherDisplay:10.37,2013-09-14 19:30:00,
2013-09-14 14:40:00,75.2,48.6,30.03,East,82,6.0,10.0,39,0.00,FEW,FEW,0.00,0.0,WeatherDisplay:10.37,2013-09-14 19:40:00,
2013-09-14 14:50:00,74.0,50.1,30.03,NE,39,2.0,12.0,43,0.00,FEW,FEW,0.00,0.0,WeatherDisplay:10.37,2013-09-14 19:50:00,
2013-09-14 15:00:00,75.9,49.2,30.03,East,81,5.0,12.0,39,0.00,FEW,FEW,0.00,0.0,WeatherDisplay:10.37,2013-09-14 20:00:00,
2013-09-14 15:10:00,74.6,48.6,30.02,NE,43,6.0,13.0,40,0.00,FEW,FEW,0.00,0.0,WeatherDisplay:10.37,2013-09-14 20:10:00,